Theta_e
298 297 296 296 295 295 295 294 294 294 294 293 293 293 293 293 294 294 294 293 293 292 291 290 290 289 289 289 289 289 289 288 288 288 288 288 287 287 287 287 287 286
299 297 296 295 295 295 294 294 294 294 293 293 293 293 293 293 293 293 293 293 292 291 290 290 290 289 289 289 289 289 288 288 288 288 287 287 287 287 287 287 286 286
300 299 297 296 295 295 294 294 294 293 293 293 292 293 293 293 293 293 293 292 292 291 290 290 289 289 289 289 288 288 288 288 288 287 287 287 287 286 286 286 286 286
301 300 298 297 295 294 294 294 293 293 293 292 292 292 292 293 293 293 293 292 291 290 290 289 289 289 289 288 288 288 288 288 287 287 287 287 286 286 286 286 286 286
302 300 298 297 295 294 294 293 293 293 292 292 292 292 292 292 292 292 292 291 291 290 289 289 289 289 288 288 288 288 287 287 287 287 286 286 286 286 286 285 285 285
301 300 298 297 295 294 294 293 293 292 292 292 292 292 292 292 292 292 292 291 290 290 289 289 289 289 288 288 288 288 287 287 287 286 286 286 286 285 285 285 285 285
301 300 298 297 295 294 293 293 293 292 292 291 291 292 292 292 292 291 291 290 290 289 289 289 289 288 288 288 288 287 287 287 286 286 286 285 285 285 285 285 285 284
301 299 298 296 295 294 293 293 292 292 291 291 291 291 291 291 291 291 290 290 290 289 289 289 288 288 288 287 287 287 286 286 286 285 285 285 285 285 285 284 284 284
300 299 298 296 295 294 293 293 292 291 291 291 291 291 291 291 291 290 290 289 289 289 289 288 288 288 287 287 287 286 286 286 285 285 285 285 284 284 284 284 284 284
300 298 297 296 295 294 293 293 292 291 291 291 290 290 291 291 290 290 289 289 289 288 288 288 288 287 287 287 286 286 286 285 285 285 284 284 284 284 284 283 283 284
299 298 297 296 295 294 293 292 292 291 290 290 290 290 290 290 290 289 289 289 288 288 288 287 287 287 286 286 286 285 285 285 284 284 284 284 284 283 283 283 283 284
298 297 297 296 295 294 293 292 291 291 290 290 290 290 290 289 289 289 289 288 288 287 287 287 287 286 286 286 285 285 285 284 284 284 284 284 283 283 283 283 283 283
298 297 296 295 294 293 292 291 291 290 289 289 289 289 289 289 289 289 288 288 287 287 287 286 286 286 285 285 285 284 284 284 283 283 283 283 283 283 282 282 282 282
297 296 294 293 292 291 291 291 290 290 289 289 289 289 289 289 288 288 288 287 287 287 286 286 285 285 285 285 284 284 284 283 283 283 283 282 282 282 282 282 282 282
296 294 293 292 291 290 290 290 290 289 289 289 289 289 289 288 288 288 287 287 286 286 286 285 285 284 284 284 284 283 283 283 283 283 282 282 282 281 281 281 281 281
294 293 292 291 290 289 290 290 289 289 288 289 289 289 288 288 288 287 287 286 286 286 285 285 284 284 283 283 283 283 283 283 282 282 281 281 281 281 280 280 280 280
293 292 291 290 289 289 290 290 289 288 288 288 289 288 288 288 288 287 286 286 286 285 285 284 283 283 283 283 282 282 282 282 281 281 281 280 280 280 280 280 279 278
293 291 290 289 289 289 289 289 289 288 288 288 288 288 288 288 287 287 286 286 285 285 284 283 283 282 282 282 282 281 281 281 280 280 280 280 280 279 279 278 278 276
292 291 290 289 289 289 289 289 289 288 288 288 288 288 287 287 287 286 286 285 285 284 284 283 282 282 282 282 281 281 281 280 280 279 279 279 279 278 278 277 277 275
292 291 290 289 289 289 289 289 288 288 288 288 288 287 287 287 286 286 285 285 284 284 283 283 282 282 282 281 281 281 280 279 279 279 279 279 279 278 277 277 276 275
292 290 289 289 289 289 289 288 288 288 288 287 287 287 287 286 286 285 285 285 284 284 283 282 282 282 282 281 281 280 280 279 279 279 279 279 278 278 278 277 276 275
292 290 290 289 289 289 289 288 287 287 287 287 287 287 286 286 286 286 285 285 284 284 283 282 282 282 281 281 280 280 279 279 279 279 279 279 278 278 277 276 275 275
292 291 290 289 288 289 288 288 287 287 287 287 287 287 286 286 286 286 285 285 284 284 283 282 282 281 281 281 280 279 279 278 279 279 279 278 278 277 276 276 275 275
292 291 290 289 289 289 288 287 287 287 287 287 287 286 286 286 286 286 285 285 284 284 283 282 281 281 281 280 279 279 278 278 279 279 278 278 277 276 276 275 275 275
292 291 290 289 289 289 288 287 287 287 287 287 286 286 286 286 286 286 285 285 284 283 283 282 281 281 280 279 279 278 278 278 278 278 277 276 276 275 275 275 275 274
292 290 289 289 289 288 287 287 287 287 287 287 286 286 286 286 286 285 285 284 283 282 282 281 281 280 279 279 279 279 278 278 278 277 276 275 275 275 275 274 274 274
Wind_Speed
47 48 49 48 48 46 45 43 41 40 39 38 36 33 31 29 27 25 24 23 22 22 21 21 21 23 24 26 27 28 28 27 26 26 27 28 28 28 28 29 29 30
46 48 49 49 49 47 46 44 42 41 40 38 36 33 32 30 28 26 24 23 22 22 21 21 23 24 25 26 27 27 27 26 26 26 28 28 27 28 28 29 29 30
46 48 49 50 50 49 47 45 43 42 40 38 36 34 32 30 28 26 24 23 23 22 22 22 24 25 26 26 27 27 26 26 26 26 27 27 26 27 28 29 30 30
45 47 49 50 50 49 48 47 45 43 41 40 37 35 33 31 29 27 25 24 23 23 22 23 25 25 26 26 26 26 25 25 25 25 26 25 25 27 27 29 30 31
45 46 48 49 50 50 49 48 46 44 43 41 38 36 34 32 30 28 26 25 24 22 23 24 25 25 26 26 25 25 25 25 25 24 25 26 25 26 27 29 30 31
46 47 48 49 50 50 50 49 47 45 43 41 39 37 35 32 30 28 26 25 23 23 23 24 25 25 25 25 25 25 25 24 24 24 25 26 26 27 28 29 31 32
47 48 48 49 50 50 50 49 47 46 44 42 39 37 35 33 30 28 26 25 23 23 24 25 25 25 25 25 24 24 24 24 23 24 25 26 27 28 28 29 31 32
48 49 49 50 50 50 50 49 48 46 44 42 40 37 35 32 30 28 26 25 24 24 25 24 24 24 24 24 24 23 23 23 23 24 25 27 27 29 29 29 31 32
49 50 50 50 51 51 50 49 48 46 44 43 40 37 35 32 29 28 26 25 25 25 24 24 24 24 23 23 23 23 22 22 23 25 26 27 28 30 30 30 31 32
50 51 51 51 51 51 50 49 48 46 45 42 40 37 34 31 29 28 27 26 26 25 24 24 24 23 23 22 22 22 22 23 24 25 26 28 29 30 30 31 31 32
51 52 52 52 52 51 50 49 47 46 44 41 39 36 33 31 29 28 27 26 25 24 23 24 23 22 22 21 21 21 22 23 24 25 27 28 29 30 30 30 31 33
51 53 53 52 52 51 50 48 47 45 43 40 38 35 32 30 28 27 26 26 24 23 23 24 22 21 21 20 20 21 22 23 24 26 27 29 30 30 30 30 31 33
51 53 53 52 52 51 49 47 46 44 42 39 37 34 32 30 28 27 26 25 24 24 24 23 21 20 20 19 20 21 22 24 25 27 28 29 30 30 30 30 32 33
50 51 52 51 51 49 48 46 45 43 41 38 36 33 31 29 27 27 26 25 24 24 23 21 20 20 19 19 20 21 22 25 26 27 29 30 30 31 31 31 33 35
49 50 50 50 49 48 47 45 44 42 40 38 35 32 30 28 27 27 26 24 24 23 22 21 20 19 18 19 20 21 23 25 27 28 29 30 31 31 32 33 34 35
47 49 49 49 48 47 46 45 44 42 40 38 35 32 30 29 28 26 25 24 23 22 21 20 19 18 17 19 20 22 24 26 27 28 29 30 31 32 33 34 34 34
47 48 49 48 47 47 46 45 44 42 40 37 34 32 30 29 27 26 24 23 22 21 20 19 18 17 17 19 20 22 24 26 27 28 29 29 30 32 34 34 33 32
47 48 48 48 48 47 47 46 44 42 40 37 34 32 30 29 27 25 24 22 21 20 19 18 17 17 17 19 20 21 23 25 26 27 28 29 30 32 33 32 31 31
47 48 49 49 48 48 47 46 44 42 40 37 34 32 30 28 26 24 23 21 20 19 18 17 16 16 17 19 20 21 22 23 25 26 27 30 31 31 30 29 29 31
47 47 48 48 48 47 47 46 44 42 39 36 34 32 29 27 25 23 22 20 19 18 18 16 15 15 17 19 20 21 22 22 24 26 28 30 31 30 28 28 29 31
46 47 48 48 47 47 47 46 45 43 40 37 34 32 29 27 25 23 21 20 19 19 17 15 14 15 17 19 20 21 21 22 25 27 28 30 30 28 27 28 29 32
46 47 47 47 47 47 47 47 45 43 40 37 34 32 29 26 24 21 20 20 19 19 17 15 14 16 18 19 20 20 21 23 26 27 28 29 28 27 27 28 30 32
46 47 47 47 47 47 48 47 45 42 39 36 33 30 27 24 22 21 20 20 19 18 17 15 14 15 17 19 19 19 22 24 25 26 27 27 26 26 27 29 31 33
45 46 46 46 47 48 49 48 46 42 39 36 32 28 25 23 22 21 20 20 19 18 18 16 14 14 17 18 18 19 21 23 24 25 25 25 25 27 28 30 32 33
45 45 46 46 47 48 49 48 45 41 38 34 30 27 25 23 22 21 21 20 19 18 18 16 14 14 16 17 17 19 20 20 21 22 23 24 25 27 29 31 33 33
44 45 46 46 47 48 49 47 44 41 37 33 29 26 24 22 21 21 21 20 19 18 17 15 14 14 15 16 17 17 17 17 18 19 21 23 25 28 30 32 33 34
Wind_Direction
239 239 239 239 239 239 239 239 239 239 238 238 238 240 242 244 247 250 254 257 262 266 271 275 279 280 282 286 290 295 300 305 310 312 312 311 311 310 309 310 311 311
239 239 239 238 238 238 238 238 239 238 238 237 237 239 241 244 246 249 252 256 260 265 269 273 276 278 281 286 291 296 300 306 310 310 309 309 308 307 308 309 310 309
239 239 239 238 238 237 237 237 237 237 236 236 236 238 240 242 244 247 250 254 258 262 267 271 274 277 282 287 292 297 302 306 308 307 305 305 305 305 307 308 308 308
239 239 239 239 238 237 236 236 236 235 234 234 235 237 239 241 242 245 248 251 256 261 266 270 273 277 283 287 293 298 303 305 304 302 301 302 303 304 306 307 307 307
239 239 239 238 237 236 236 235 235 235 234 234 234 236 238 239 241 243 246 250 254 260 265 269 273 278 283 288 293 297 300 300 299 299 299 301 303 304 307 307 306 307
238 239 239 238 237 236 235 235 234 234 233 233 234 235 236 237 239 242 244 249 254 259 264 267 272 278 283 288 293 295 296 296 296 298 299 302 305 306 307 306 305 305
238 238 238 237 236 235 235 234 233 232 232 232 233 234 235 236 238 241 245 250 255 259 263 267 272 279 284 288 291 293 293 294 296 298 300 303 304 305 305 305 305 305
237 237 237 236 236 235 234 233 232 231 230 231 232 232 234 235 237 241 245 250 255 259 263 268 274 279 284 287 289 290 292 293 296 298 301 303 303 304 305 305 306 306
235 236 236 236 235 234 233 232 230 230 229 230 231 231 232 234 236 241 246 251 255 259 264 269 275 279 283 285 287 288 290 293 297 300 301 302 303 304 306 307 306 307
234 234 234 235 235 234 232 231 229 228 228 229 229 230 231 232 236 241 246 252 255 260 265 270 274 278 282 283 285 288 291 294 298 299 300 301 302 304 306 307 307 307
233 233 233 234 234 233 231 229 228 227 227 228 228 228 230 232 237 242 247 253 257 261 267 270 274 278 280 282 286 289 292 296 298 298 300 301 302 305 306 308 308 309
232 232 233 234 234 232 230 227 227 226 226 226 226 227 230 233 238 244 250 254 258 262 266 269 273 277 279 282 286 290 293 296 297 298 300 301 302 305 307 309 309 309
233 233 233 233 232 231 228 225 225 224 224 224 225 226 230 235 241 246 251 255 258 262 265 269 273 275 278 282 286 290 293 295 297 298 300 301 303 306 308 309 310 311
234 232 231 231 230 228 225 224 223 222 222 222 223 226 230 236 243 248 252 255 258 262 265 269 272 273 277 283 287 292 295 295 297 299 300 303 304 306 309 312 314 314
232 230 229 228 227 225 223 222 221 220 219 220 221 225 231 237 242 247 251 255 258 263 266 268 271 273 279 285 289 293 295 295 297 299 302 305 306 309 312 315 316 316
231 229 227 226 224 222 221 220 219 218 218 218 221 225 231 236 242 246 250 255 258 262 266 268 271 276 282 287 291 294 296 297 300 302 304 306 309 311 314 316 316 314
230 227 225 224 222 220 219 219 218 217 217 218 220 225 230 235 240 245 248 253 257 261 265 268 272 278 284 289 293 297 299 301 302 304 305 307 310 312 314 315 314 312
230 226 224 223 221 219 218 217 217 216 216 217 221 225 230 234 238 243 246 251 255 259 264 268 272 280 287 292 295 298 301 301 300 301 303 307 310 310 310 312 312 313
229 226 224 222 220 219 217 216 215 214 214 217 221 224 229 233 236 240 245 249 254 257 261 266 272 282 290 293 297 299 300 297 297 299 302 306 307 307 307 311 315 316
228 226 224 222 220 218 216 214 213 213 213 216 220 224 228 232 235 240 244 249 253 256 260 267 276 286 292 295 297 298 296 293 293 297 301 303 304 306 310 316 319 319
228 226 224 222 219 216 214 212 211 211 212 215 219 223 227 230 234 238 243 249 253 257 262 270 280 288 293 295 295 295 292 290 291 294 298 300 303 309 316 320 322 321
228 226 223 221 218 214 212 211 210 210 212 215 218 221 225 228 232 237 245 249 253 259 265 272 280 287 291 291 292 292 288 287 290 294 298 302 308 315 320 324 325 324
228 226 223 219 216 213 212 210 209 210 212 215 218 221 223 227 233 239 244 248 253 259 265 270 275 282 287 288 289 288 286 287 292 296 300 306 314 320 324 326 326 323
228 226 222 218 215 212 211 209 209 210 212 215 218 221 223 227 233 239 243 248 253 258 263 268 273 278 282 285 285 284 284 288 294 298 305 312 319 324 327 326 324 320
227 224 221 217 213 211 209 208 208 209 212 214 217 219 223 228 233 240 244 248 251 256 262 268 272 276 279 280 280 280 283 290 297 303 311 320 325 327 325 321 320 317
225 222 218 215 212 209 207 207 208 209 210 213 215 218 222 229 235 239 242 245 249 254 261 267 271 275 275 274 274 278 284 293 300 308 319 326 327 324 319 317 316 315